Location: L�Ave Maria
(50.7161°N, 1.5911°E)
Time: 00:12:39
(UTC+00:00)

Cosmos 1538 Rocket - Pass Details

Date: 10 July 2020
Orbit: 753 x 791 km, 74.0° (Epoch: 03 August)

Event Time Altitude Azimuth Distance (km) Brightness Sun altitude
Rises 20:57:59 0° 201° (SSW) 3,271 7.0 -7.0°
Reaches altitude 10° 21:00:22 10° 200° (SSW) 2,343 6.2 -7.2°
Maximum altitude 21:05:43 86° 113° (ESE) 791 4.1 -7.8°
Drops below altitude 10° 21:11:02 10° 25° (NNE) 2,337 6.9 -8.3°
Sets 21:13:25 0° 25° (NNE) 3,262 7.6 -8.6°
